, WY

(GMT )
South Pass

Weather History for KFWZ - October, 2012

Change the Weather History Date:

Monday, October 22, 2012

  Actual Average Record
Temperature  
Mean Temperature 38 °F -  
Max Temperature 44 °F - - ()
Min Temperature 33 °F - - ()
Degree Days  
Heating Degree Days 26    
Moisture  
Dew Point 37 °F    
Average Humidity 90    
Maximum Humidity 100    
Minimum Humidity 71    
Precipitation  
Precipitation 0.33 in - - ()
Sea Level Pressure  
Sea Level Pressure 29.76 in    
Wind  
Wind Speed 10 mph ()    
Max Wind Speed 18 mph    
Max Gust Speed 31 mph    
Visibility 8.7 miles    
Events Rain , Snow , Thunderstorm    
Averages and records for this station are not official NWS values.
T = Trace of Precipitation, MM = Missing Value Source: Averaged Metar Reports

Daily Weather History Graph

Daily Weather History Graph

Search for Another Location

Airport or City:

Trip Planner

Search our weather history database for the weather conditions in past years. The results will help you decide how hot, cold, wet, or windy it might be!

Date:

Astronomy

Oct. 22, 2012 Rise Set
Actual Time 7:37 AM MDT 6:21 PM MDT
Civil Twilight 7:08 AM MDT 6:49 PM MDT
Nautical Twilight 6:35 AM MDT 7:22 PM MDT
Astronomical Twilight 6:02 AM MDT 7:55 PM MDT
Moon 2:39 PM MDT (10/22) 12:18 AM MDT (10/22)
Length of Visible Light 11h 41m
Length of Day
10h 44m
First Quarter, 57% of the Moon is Illuminated
Oct 22
First Quarter
Oct 29
Full
Nov 6
Last Quarter
Nov 13
New
Nov 20
First Quarter

Hourly Weather History & Observations

Time (MDT) Temp. Windchill Dew Point Humidity Pressure Visibility Wind Dir Wind Speed Gust Speed Precip Events Conditions
12:15 AM 37.4 °F 28.2 °F 37.4 °F 100% 29.88 in 2.5 mi SW 16.1 mph 20.7 mph 0.02 in Rain Light Rain
12:35 AM 37.4 °F 29.3 °F 35.6 °F 93% 29.88 in 3.0 mi WSW 12.7 mph 26.5 mph 0.05 in Rain Rain
12:55 AM 37.4 °F 30.8 °F 33.8 °F 87% 29.85 in 10.0 mi West 9.2 mph 19.6 mph 0.05 in   Light Drizzle
1:15 AM 37.4 °F 30.3 °F 33.8 °F 87% 29.84 in 10.0 mi SW 10.4 mph - N/A   Overcast
1:35 AM 37.4 °F 29.3 °F 33.8 °F 87% 29.85 in 10.0 mi SW 12.7 mph - N/A   Overcast
2:15 AM 37.4 °F 29.3 °F 35.6 °F 93% 29.84 in 10.0 mi SW 12.7 mph - N/A   Drizzle
2:35 AM 35.6 °F 26.2 °F 35.6 °F 100% 29.85 in 2.5 mi WSW 15.0 mph - 0.01 in Rain Light Rain
2:55 AM 35.6 °F 27.5 °F 35.6 °F 100% 29.85 in 2.5 mi WSW 11.5 mph - 0.03 in Rain Light Rain
3:15 AM 35.6 °F 28.0 °F 35.6 °F 100% 29.84 in 3.0 mi SW 10.4 mph - 0.02 in Rain Light Rain
3:35 AM 35.6 °F 28.6 °F 35.6 °F 100% 29.84 in 10.0 mi WSW 9.2 mph - 0.02 in   Drizzle
3:55 AM 35.6 °F 29.9 °F 35.6 °F 100% 29.83 in 10.0 mi SW 6.9 mph - 0.02 in Rain Light Rain
4:15 AM 37.4 °F 31.4 °F 35.6 °F 93% 29.83 in 7.0 mi SW 8.1 mph - 0.01 in Rain Light Rain
4:35 AM 37.4 °F 32.1 °F 35.6 °F 93% 29.83 in 10.0 mi SW 6.9 mph - 0.01 in   Overcast
4:55 AM 37.4 °F 31.4 °F 35.6 °F 93% 29.83 in 10.0 mi SSW 8.1 mph - 0.02 in Rain Rain
5:15 AM 37.4 °F 32.8 °F 35.6 °F 93% 29.83 in 10.0 mi SW 5.8 mph - N/A   Drizzle
5:35 AM 37.4 °F 33.8 °F 35.6 °F 93% 29.83 in 10.0 mi WSW 4.6 mph - N/A   Light Drizzle
6:15 AM 37.4 °F 32.8 °F 35.6 °F 93% 29.83 in 10.0 mi SW 5.8 mph - N/A   Overcast
6:35 AM 37.4 °F 32.8 °F 35.6 °F 93% 29.83 in 10.0 mi WSW 5.8 mph - 0.01 in   Light Drizzle
7:15 AM 37.4 °F 30.8 °F 35.6 °F 93% 29.82 in 10.0 mi WSW 9.2 mph - N/A   Overcast
7:55 AM 37.4 °F 31.4 °F 35.6 °F 93% 29.81 in 10.0 mi WSW 8.1 mph - N/A   Clear
8:15 AM 37.4 °F 31.4 °F 35.6 °F 93% 29.81 in 10.0 mi WSW 8.1 mph - N/A   Clear
8:35 AM 37.4 °F 32.8 °F 35.6 °F 93% 29.81 in 10.0 mi SW 5.8 mph - N/A   Clear
8:55 AM 37.4 °F 32.8 °F 35.6 °F 93% 29.81 in 10.0 mi SW 5.8 mph - N/A   Clear
9:15 AM 39.2 °F 35.0 °F 35.6 °F 87% 29.81 in 10.0 mi WSW 5.8 mph - N/A   Clear
9:35 AM 39.2 °F 35.0 °F 37.4 °F 93% 29.81 in 10.0 mi South 5.8 mph - N/A   Mostly Cloudy
9:55 AM 39.2 °F 33.6 °F 37.4 °F 93% 29.81 in 10.0 mi South 8.1 mph - N/A   Overcast
10:15 AM 39.2 °F 34.2 °F 37.4 °F 93% 29.80 in 10.0 mi SSW 6.9 mph - N/A   Overcast
10:35 AM 41.0 °F 37.1 °F 37.4 °F 87% 29.80 in 10.0 mi SW 5.8 mph - N/A   Overcast
10:55 AM 41.0 °F 38.0 °F 37.4 °F 87% 29.79 in 10.0 mi SSW 4.6 mph - N/A   Overcast
11:15 AM 39.2 °F 35.0 °F 37.4 °F 93% 29.79 in 10.0 mi SSW 5.8 mph - N/A   Overcast
11:35 AM 41.0 °F 36.4 °F 37.4 °F 87% 29.78 in 10.0 mi SSW 6.9 mph - N/A   Overcast
11:55 AM 41.0 °F 35.8 °F 39.2 °F 93% 29.78 in 10.0 mi SSW 8.1 mph - N/A   Overcast
12:15 PM 42.8 °F 38.0 °F 37.4 °F 81% 29.78 in 10.0 mi SSW 8.1 mph - N/A   Overcast
12:35 PM 42.8 °F 38.6 °F 39.2 °F 87% 29.77 in 10.0 mi SSW 6.9 mph - N/A Rain Light Rain
12:55 PM 42.8 °F 37.5 °F 41.0 °F 93% 29.75 in 10.0 mi SSW 9.2 mph - N/A   Light Drizzle
1:15 PM 44.6 °F 39.2 °F 41.0 °F 87% 29.74 in 10.0 mi SSW 10.4 mph 18.4 mph N/A   Overcast
1:35 PM 44.6 °F 39.7 °F 41.0 °F 87% 29.74 in 10.0 mi SSW 9.2 mph - N/A   Overcast
1:55 PM 44.6 °F 40.2 °F 41.0 °F 87% 29.73 in 10.0 mi SSW 8.1 mph - N/A Rain Light Rain
2:15 PM 44.6 °F 40.7 °F 41.0 °F 87% 29.72 in 10.0 mi SW 6.9 mph 17.3 mph 0.01 in Rain Light Rain
2:35 PM 42.8 °F 37.0 °F 41.0 °F 93% 29.71 in 7.0 mi WSW 10.4 mph - 0.03 in Thunderstorm Unknown
2:55 PM 42.8 °F 38.6 °F 41.0 °F 93% 29.70 in 10.0 mi SW 6.9 mph - 0.07 in Rain , Thunderstorm Light Thunderstorms and Rain
3:15 PM 44.6 °F 39.7 °F 41.0 °F 87% 29.70 in 10.0 mi SW 9.2 mph - N/A Thunderstorm Thunderstorm
3:35 PM 44.6 °F 38.8 °F 42.8 °F 93% 29.69 in 10.0 mi WSW 11.5 mph - N/A   Overcast
3:55 PM 44.6 °F 38.8 °F 41.0 °F 87% 29.70 in 10.0 mi WSW 11.5 mph 19.6 mph N/A   Overcast
4:15 PM 44.6 °F 38.1 °F 39.2 °F 81% 29.70 in 10.0 mi SW 13.8 mph 20.7 mph N/A Thunderstorm Thunderstorm
4:35 PM 44.6 °F 37.8 °F 37.4 °F 76% 29.70 in 10.0 mi SW 15.0 mph 19.6 mph N/A Rain Light Rain
5:15 PM 44.6 °F 38.4 °F 37.4 °F 76% 29.69 in 10.0 mi SW 12.7 mph 19.6 mph N/A   Mostly Cloudy
5:35 PM 44.6 °F 38.1 °F 35.6 °F 71% 29.68 in 10.0 mi SSW 13.8 mph 23.0 mph N/A   Clear
5:55 PM 44.6 °F 38.4 °F 35.6 °F 71% 29.69 in 10.0 mi SSW 12.7 mph 21.9 mph N/A   Scattered Clouds
6:15 PM 44.6 °F 38.1 °F 37.4 °F 76% 29.69 in 10.0 mi SSW 13.8 mph 31.1 mph N/A   Overcast
6:35 PM 42.8 °F 34.8 °F 37.4 °F 81% 29.69 in 10.0 mi SSW 17.3 mph 28.8 mph N/A   Overcast
7:15 PM 42.8 °F 36.2 °F 37.4 °F 81% 29.70 in 10.0 mi SSW 12.7 mph 17.3 mph N/A   Overcast
7:35 PM 42.8 °F 36.6 °F 37.4 °F 81% 29.70 in 10.0 mi SSW 11.5 mph 17.3 mph N/A Rain Light Rain
7:55 PM 42.8 °F 35.8 °F 37.4 °F 81% 29.69 in 10.0 mi SSW 13.8 mph 23.0 mph N/A Thunderstorm Overcast
8:15 PM 42.8 °F 35.4 °F 37.4 °F 81% 29.69 in 10.0 mi South 15.0 mph 21.9 mph N/A Thunderstorm Overcast
8:35 PM 41.0 °F 33.5 °F 37.4 °F 87% 29.69 in 4.0 mi SW 13.8 mph 21.9 mph 0.03 in Rain Light Rain
8:55 PM 37.4 °F 29.8 °F 35.6 °F 93% 29.69 in 4.0 mi West 11.5 mph - 0.06 in Rain Light Rain
9:15 PM 37.4 °F 29.3 °F 35.6 °F 93% 29.71 in 7.0 mi West 12.7 mph 19.6 mph N/A Rain Light Rain
9:35 PM 37.4 °F 29.3 °F 35.6 °F 93% 29.69 in 10.0 mi WSW 12.7 mph - 0.01 in Rain Light Rain
9:55 PM 37.4 °F 30.8 °F 35.6 °F 93% 29.70 in 5.0 mi SW 9.2 mph - 0.02 in Rain Rain
10:15 PM 35.6 °F 25.9 °F 35.6 °F 100% 29.70 in 2.0 mi WSW 16.1 mph - 0.02 in Rain Light Rain
10:35 PM 35.6 °F 26.6 °F 35.6 °F 100% 29.70 in 7.0 mi WSW 13.8 mph 24.2 mph 0.03 in Rain Light Rain
11:15 PM 33.8 °F 24.3 °F 33.8 °F 100% 29.69 in 2.5 mi WSW 13.8 mph 20.7 mph 0.01 in Snow Light Snow
11:35 PM 35.6 °F 25.9 °F 35.6 °F 100% 29.68 in 10.0 mi WSW 16.1 mph 20.7 mph 0.02 in   Overcast
11:55 PM 37.4 °F 27.5 °F 35.6 °F 93% 29.68 in 5.0 mi WSW 18.4 mph 24.2 mph 0.02 in Rain Rain